Location: Arcueil
(48.7999°N, 2.3326°E)
Time: 22:42:14
(UTC+00:00)

IGS 5A - Pass Details

Date: 03 February 2023
Orbit: 578 x 583 km, 97.5° (Epoch: 27 March)

Event Time Altitude Azimuth Distance (km) Brightness Sun altitude
Exits shadow 18:20:21 26° 84° (E) 1,167 4.4 -14.9°
Maximum altitude 18:21:04 27° 66° (ENE) 1,124 4.3 -15.0°
Drops below altitude 10° 18:24:34 10° 8° (N) 1,909 5.9 -15.6°
Sets 18:26:57 0° 357° (N) 2,813 6.9 -15.9°
